Home > Time Zones > World Clock > Weather > Latvia > Riga > Past weeks

Flag for Latvia Weather past 2 weeks in Riga, Latvia

Now
45 °F

More clouds than sun.


Feels Like: 40 °F
Forecast: 29 / 38 °F
Wind: 8 mph from Northeast

Location: Riga Airport

Current Time: Oct 21, 2014 at 12:04:58 PM

Latest Report: Oct 21, 2014 at 11:20 AM


Visibility: N/A

Pressure: 29.65 "Hg

Humidity: 87%

Dew point: 41 °F

Location of RigaLocation

Historic Weather in Riga — Graph

°F

Riga temperature yesterday

Maximum temperature yesterday: 57 °F (at 12:20 PM)
Minimum temperature yesterday: 52 °F (at 9:20 PM)
Average temperature yesterday: 54 °F

Past Weeks' High & Low Weather Summary

 TemperatureHumidityPressure
High63 °F (Oct 10, 2:50 PM)100% (Oct 9, 7:20 AM)30.54 "Hg (Oct 9, 7:20 AM)
Low25 °F (Oct 18, 4:50 AM)51% (Oct 7, 2:20 PM)29.39 "Hg (Oct 20, 2:50 PM)
Average48 °F90%29.93 "Hg
* Reported Oct 6 10:20 AM — Oct 21 10:50 AM, Riga, Weather by CustomWeather, © 2014

Note: Actual official high and low records may vary slightly from our data, if they occured in-between our weather recording intervals... More about our weather records

Advertising

Riga weather history for previous 24 hours

 ConditionsComfort  
Time TempWeatherWind HumidityBarometerVisibility
10:50 AM
Oct 21
45 °FMore clouds than sun.8 mph87%29.65 "HgN/A
10:20 AM45 °FMostly cloudy.9 mph87%29.62 "HgN/A
9:50 AM45 °FCloudy.9 mph87%29.62 "HgN/A
9:20 AM46 °FCloudy.8 mph87%29.62 "HgN/A
8:50 AM46 °FMostly cloudy.9 mph93%29.59 "HgN/A
8:20 AM48 °FMostly cloudy.7 mph87%29.56 "HgN/A
7:50 AM48 °FOvercast.7 mph94%29.56 "HgN/A
7:20 AM48 °FMostly cloudy.10 mph94%29.56 "HgN/A
6:50 AM48 °FOvercast.12 mph94%29.53 "HgN/A
6:20 AM48 °FOvercast.9 mph94%29.53 "HgN/A
5:50 AM48 °FOvercast.10 mph100%29.53 "HgN/A
5:20 AM50 °FMostly cloudy.10 mph94%29.53 "HgN/A
4:50 AM50 °FMostly cloudy.10 mph94%29.50 "HgN/A
4:20 AM50 °FMostly cloudy.9 mph94%29.50 "HgN/A
3:50 AM50 °FMostly cloudy.10 mph94%29.50 "HgN/A
3:20 AM50 °FMostly cloudy.14 mph100%29.47 "HgN/A
2:50 AM52 °FLow clouds.12 mph94%29.47 "HgN/A
2:20 AM52 °FLow clouds.10 mph94%29.47 "HgN/A
1:50 AM52 °FLight rain. Low clouds.10 mph100%29.45 "HgN/A
1:20 AM52 °FLight rain. Low clouds.9 mph100%29.45 "HgN/A
12:50 AM52 °FMostly cloudy.8 mph100%29.45 "HgN/A
12:20 AM52 °FMostly cloudy.7 mph94%29.42 "HgN/A
11:50 PM
Oct 20
52 °FMostly cloudy.5 mph100%29.42 "HgN/A
11:20 PM52 °FMostly cloudy.3 mph100%29.42 "HgN/A
10:50 PM52 °FSprinkles. Passing clouds.5 mph100%29.42 "HgN/A
10:20 PM52 °FPartly cloudy.6 mph100%29.39 "HgN/A
9:50 PM52 °FSprinkles. Overcast.6 mph100%29.39 "Hg6 mi
9:20 PM52 °FSprinkles. Mostly cloudy.6 mph100%29.39 "Hg4 mi
8:50 PM54 °FSprinkles. Passing clouds.5 mph94%29.39 "HgN/A
8:20 PM54 °FSprinkles. Passing clouds.5 mph94%29.39 "HgN/A
7:50 PM54 °FSprinkles. Passing clouds.5 mph94%29.39 "HgN/A
7:20 PM54 °FSprinkles. Passing clouds.6 mph94%29.39 "HgN/A
6:50 PM54 °FSprinkles. Scattered clouds.6 mph94%29.39 "HgN/A
6:20 PM54 °FSprinkles. Scattered clouds.6 mph100%29.39 "HgN/A
5:50 PM54 °FSprinkles. More clouds than sun.6 mph100%29.39 "HgN/A
5:20 PM55 °FSprinkles. Scattered clouds.6 mph88%29.39 "HgN/A
4:50 PM55 °FMore clouds than sun.8 mph94%29.39 "HgN/A
4:20 PM57 °FMore clouds than sun.6 mph88%29.39 "HgN/A
3:50 PM57 °FSprinkles. Scattered clouds.6 mph88%29.39 "HgN/A
3:20 PM57 °FScattered clouds.5 mph88%29.39 "HgN/A
2:50 PM57 °FScattered clouds.7 mph88%29.39 "HgN/A
2:20 PM55 °FBroken clouds.6 mph94%29.42 "HgN/A
1:50 PM57 °FBroken clouds.8 mph88%29.42 "HgN/A
1:20 PM55 °FBroken clouds.7 mph94%29.42 "Hg6 mi
12:50 PM57 °FBroken clouds.7 mph88%29.42 "HgN/A
12:20 PM57 °FCloudy.7 mph88%29.42 "HgN/A
Weather by CustomWeather, © 2014

See weather overviewHow to use our weather pages